カタログに戻る

INTELSAT 904

運用中通信GEO
NORAD 27380·PAYLOAD· XX

打ち上げ Feb 23, 2002 から Guiana Space Centre

Loading…

TLE

最新Source: CelesTrak SupGP

元期: Sep 14, 2026, 00:00 UTC

1 27380C 02007A   26257.00000000 -.00000133  00000+0  00000+0 0  2574
2 27380   7.1373  68.0928 0004920 149.7700 103.6449  1.00273548    17

AllMySatでINTELSAT 904をリアルタイム追跡

Download on the App Store